Content
SEND FEEDBACK

Daily
Averages
Monthly
Summary
United States of America

BEAVER ISLAND, MICHIGAN


Home > North America > United States > Michigan
Elevation: 191 meters     Latitude: 45 43N     Longitude: 085 31W

WEATHER
 
SELECT A DAY
Number of Records: 327,810;   Date Range: 9/12/01 - 10/18/14
 
SHARE

PRINT THIS DATA

[ ← Previous Day ]
WEATHER ALMANAC - 20 JANUARY, 2014
[ Next Day → ]
[ °F ]   °C
Weather ElementAverageHighLow
Temperature-13.2 °C-9.7 °C (1:35 am)-15.4 °C (11:15 pm)
Dewpoint-16.9 °C-12.4 °C (12:55 am)-19.2 °C (11:55 am)
Humidity74 %84 % (12:55 am)64 % (2:55 pm)
Barometer1012.9 hPa1020.7 hPa (11:36 pm)1002 hPa (12:35 am)
Wind Speed9.7 km/h18.5 km/h (8:55 am)
Wind Gust25.9 km/h (8:56 pm)
Weather ElementAverage
Visibility13.7 km
Wind DirectionSSW (211.5 °)

Weather ElementTotal
Precipitation---
Heating Degree Days30.9 (Base 18.3)
Averaged from 71 records on 20 January, 2014
WEATHER CONDITIONS BREAKOUT
WIND DIRECTION BREAKOUT
WEATHER BY HOUR - 20 JANUARY, 2014
[ °F ]   °C
Local TimeTemperatureDewpointHumidityBarometerVisibilityWind DirectionWind SpeedGust SpeedPrecipitationEventsConditions
12:35 AM-10.1 °C-12.6 °C82 %1002 hPa16.1 kmNNW (330°)7.4 km/hSnowLight Snow
12:55 AM-10.1 °C-12.4 °C84 %1002.4 hPa16.1 kmNNW (330°)9.3 km/hSnowLight Snow
1:15 AM-9.9 °C-13 °C78 %1002.4 hPa16.1 kmNNW (340°)7.4 km/hOvercast
1:35 AM-9.7 °C-13.8 °C73 %1002.7 hPa16.1 kmNorth (350°)11.1 km/hOvercast
1:55 AM-10 °C-14 °C73 %1002.7 hPa16.1 kmNorth (360°)9.3 km/hOvercast
2:15 AM-10.3 °C-13.7 °C77 %1003.4 hPa16.1 kmNorth (10°)14.8 km/hOvercast
2:35 AM-10.6 °C-14 °C77 %1003.7 hPa16.1 kmNorth (360°)13 km/hOvercast
2:56 AM-11 °C-14.2 °C78 %1004.1 hPa16.1 kmNorth (360°)9.3 km/hOvercast
3:15 AM-11.2 °C-14.6 °C76 %1004.7 hPa16.1 kmNorth (360°)11.1 km/hOvercast
3:35 AM-11.3 °C-14.8 °C76 %1005.1 hPa16.1 kmNorth (10°)11.1 km/hOvercast
3:55 AM-11.5 °C-15.2 °C75 %1005.4 hPa16.1 kmNorth (360°)11.1 km/hOvercast
4:15 AM-11.6 °C-15.2 °C75 %1005.8 hPa16.1 kmNorth (10°)9.3 km/hOvercast
4:35 AM-11.7 °C-15.2 °C76 %1006.1 hPa16.1 kmNNW (340°)11.1 km/hOvercast
4:55 AM-11.8 °C-15.1 °C77 %1007.1 hPa16.1 kmNorth (350°)9.3 km/hOvercast
5:15 AM-11.8 °C-15.5 °C75 %1007.1 hPa16.1 kmNorth (350°)14.8 km/hOvercast
5:36 AM-12.1 °C-16 °C73 %1007.5 hPa16.1 kmNorth (350°)13 km/hOvercast
5:55 AM-12.1 °C-16.3 °C72 %1008.1 hPa16.1 kmNorth (350°)9.3 km/hOvercast
6:15 AM-12.2 °C-16.3 °C72 %1008.1 hPa16.1 kmNorth (360°)11.1 km/hOvercast
6:35 AM-12.3 °C-16.3 °C73 %1008.5 hPa16.1 kmNorth (360°)11.1 km/hOvercast
6:55 AM-12.5 °C-16.4 °C73 %1008.5 hPa16.1 kmNorth (10°)9.3 km/hOvercast
7:16 AM-12.6 °C-16 °C76 %1008.5 hPa11.3 kmNNE (20°)9.3 km/hOvercast
7:35 AM-12.9 °C-15.7 °C80 %1008.8 hPa8 kmNNE (30°)9.3 km/hHaze
7:55 AM-13.1 °C-15.9 °C80 %1009.1 hPa6.4 kmNNE (30°)11.1 km/hSnowLight Snow
8:16 AM-13.5 °C-16 °C82 %1009.1 hPa3.2 kmNE (40°)11.1 km/hSnowLight Snow
8:35 AM-13.9 °C-16.4 °C82 %1009.8 hPa3.2 kmNNE (30°)9.3 km/hSnowLight Snow
8:55 AM-14.2 °C-16.7 °C82 %1010.2 hPa4 kmNE (40°)18.5 km/hSnowLight Snow
9:15 AM-14.5 °C-17.5 °C78 %1010.5 hPa6.4 kmNE (40°)16.7 km/hHaze
9:35 AM-14.6 °C-17.6 °C78 %1011.2 hPa4.8 kmNE (40°)11.1 km/hHaze
9:55 AM-14.7 °C-17.8 °C78 %1011.9 hPa4.8 kmNNE (30°)14.8 km/hHaze
10:15 AM-14.8 °C-18.1 °C76 %1012.2 hPa8 kmNNE (30°)11.1 km/hHaze
10:35 AM-14.7 °C-18.1 °C76 %1012.9 hPa4.8 kmNE (50°)7.4 km/hHaze
10:56 AM-14.6 °C-18.1 °C75 %1013.2 hPa6.4 kmENE (70°)13 km/hHaze
11:15 AM-14.6 °C-18.5 °C73 %1013.5 hPa16.1 kmNE (50°)11.1 km/hMostly Cloudy
11:35 AM-14.5 °C-19.1 °C69 %1013.5 hPa16.1 kmENE (70°)9.3 km/hMostly Cloudy
11:55 AM-14.5 °C-19.2 °C68 %1013.9 hPa16.1 kmNNE (30°)11.1 km/hScattered Clouds
12:15 PM-14.5 °C-19 °C69 %1014.2 hPa16.1 kmNE (50°)9.3 km/hClear
12:35 PM-14.3 °C-19.1 °C68 %1014.2 hPa16.1 kmNNE (30°)7.4 km/hScattered Clouds
12:55 PM-14.2 °C-19 °C68 %1014.2 hPa16.1 kmCalmScattered Clouds
1:15 PM-14.1 °C-19 °C67 %1013.9 hPa16.1 kmCalmScattered Clouds
1:35 PM-13.7 °C-18.8 °C66 %1014.2 hPa16.1 kmCalmScattered Clouds
1:55 PM-13.7 °C-18.5 °C68 %1014.2 hPa11.3 kmNE (40°)5.6 km/hOvercast
2:15 PM-13.6 °C-18.1 °C70 %1014.2 hPa11.3 kmCalmMostly Cloudy
2:36 PM-13.2 °C-18.5 °C65 %1014.6 hPa16.1 kmNW (320°)9.3 km/hMostly Cloudy
2:55 PM-13.2 °C-18.7 °C64 %1014.6 hPa16.1 kmNW (310°)9.3 km/hOvercast
3:15 PM-13.3 °C-18.7 °C65 %1014.9 hPa16.1 kmNW (320°)7.4 km/hOvercast
3:35 PM-13.2 °C-18.3 °C66 %1015.2 hPa16.1 kmWNW (290°)7.4 km/hOvercast
3:55 PM-13.3 °C-18.1 °C68 %1015.9 hPa16.1 kmNorth (350°)5.6 km/hMostly Cloudy
4:15 PM-13.2 °C-18.1 °C67 %1016.3 hPa16.1 kmNW (310°)5.6 km/hScattered Clouds
4:35 PM-13.3 °C-18 °C68 %1016.6 hPa16.1 kmCalmMostly Cloudy
4:55 PM-13.2 °C-17.7 °C70 %1016.9 hPa16.1 kmNW (320°)7.4 km/hOvercast
5:16 PM-13.3 °C-17.5 °C71 %1017.3 hPa11.3 kmNorth (360°)11.1 km/hOvercast
5:35 PM-13.6 °C-17.8 °C71 %1017.6 hPa16.1 kmNorth (360°)7.4 km/hMostly Cloudy
5:55 PM-13.7 °C-18.2 °C69 %1017.9 hPa16.1 kmNorth (350°)5.6 km/hMostly Cloudy
6:16 PM-13.5 °C-18.5 °C67 %1018.3 hPa16.1 kmNorth (350°)11.1 km/hOvercast
6:35 PM-13.7 °C-19 °C65 %1018.6 hPa16.1 kmCalmMostly Cloudy
6:55 PM-13.8 °C-19.2 °C64 %1018.6 hPa16.1 kmNW (320°)14.8 km/hScattered Clouds
7:15 PM-14 °C-19.1 °C66 %1019 hPa16.1 kmNNW (330°)9.3 km/hClear
7:35 PM-14 °C-18.7 °C68 %1019.3 hPa16.1 kmNNW (330°)13 km/hClear
7:56 PM-14.1 °C-18.2 °C72 %1019.3 hPa16.1 kmNNW (330°)5.6 km/hScattered Clouds
8:15 PM-14 °C-17.8 °C74 %1019.3 hPa16.1 kmNW (310°)13 km/hScattered Clouds
8:35 PM-13.6 °C-17.4 °C74 %1019.3 hPa16.1 kmNW (320°)13 km/hMostly Cloudy
8:56 PM-13.5 °C-16.6 °C78 %1019.3 hPa16.1 kmNW (310°)16.7 km/h25.9 km/hOvercast
9:15 PM-13.5 °C-16.4 °C79 %1019.6 hPa11.3 kmWNW (300°)13 km/hSnowLight Snow
9:35 PM-14 °C-16.5 °C82 %1019.6 hPa8 kmWNW (300°)13 km/hSnowLight Snow
9:55 PM-14.1 °C-16.6 °C82 %1019.6 hPa11.3 kmNW (310°)13 km/hOvercast
10:15 PM-14.6 °C-17.2 °C81 %1020 hPa16.1 kmWNW (300°)13 km/hScattered Clouds
10:35 PM-14.8 °C-17.3 °C82 %1020 hPa16.1 kmWNW (300°)11.1 km/hSnowLight Snow
10:55 PM-15 °C-17.3 °C83 %1020.3 hPa11.3 kmWNW (300°)11.1 km/hSnowLight Snow
11:15 PM-15.4 °C-17.5 °C84 %1020.3 hPa16.1 kmNW (320°)11.1 km/hScattered Clouds
11:36 PM-15.3 °C-17.4 °C84 %1020.7 hPa16.1 kmNW (310°)11.1 km/hSnowLight Snow
11:55 PM-15 °C-17.2 °C84 %1020.7 hPa8 kmNW (320°)11.1 km/hSnowLight Snow
Hourly data recorded from KSJX, located 0 kilometers away from Beaver Island, Michigan







STORIES FROM OUR PARTNERS